Estación de La Piedad

Ultimos registro cada 15 minutos 54
Estación Fecha / Hora Temperatura Humedad Lluvia Velocidad Dirección Radiación Presion
54 La Piedad 05-05-2026 13:30 18,6 81 0 0,9 220 264 1012,5
53 La Piedad 05-05-2026 13:15 18,6 81 0 0,9 220 264 1012,5
52 La Piedad 05-05-2026 13:00 18,2 84 0 0 227 227 1013
51 La Piedad 05-05-2026 12:45 17,7 87 0 0 223 278 1012,7
50 La Piedad 05-05-2026 12:30 16,9 90 0 0 221 169 1013,5
49 La Piedad 05-05-2026 12:15 16,9 90 0 0 221 169 1013,5
48 La Piedad 05-05-2026 12:00 16,6 94 0 0 221 237 1013,4
47 La Piedad 05-05-2026 11:45 16,1 96 0 0 221 211 1013,5
46 La Piedad 05-05-2026 11:30 15,3 99 0 0 223 188 1013,4
45 La Piedad 05-05-2026 11:15 15,3 99 0 0 223 188 1013,4
44 La Piedad 05-05-2026 11:00 15,2 99 0 0 231 262 1013,5
43 La Piedad 05-05-2026 10:45 14,9 99 0 0 231 141 1013,5
42 La Piedad 05-05-2026 10:30 14,3 99 0 0,4 231 183 1013,8
41 La Piedad 05-05-2026 10:15 14,3 99 0 0,4 231 183 1013,8
40 La Piedad 05-05-2026 10:00 13,7 99 0 0 231 174 1013,4
39 La Piedad 05-05-2026 09:45 13,6 99 0 1,3 231 151 1013,6
38 La Piedad 05-05-2026 09:30 13 99 0 0,9 212 91 1013,5
37 La Piedad 05-05-2026 09:15 13 99 0 0,9 212 91 1013,5
36 La Piedad 05-05-2026 09:00 12,9 98 0 0,4 212 76 1014,2
35 La Piedad 05-05-2026 08:45 12,8 98 0 0 213 54 1013,9
34 La Piedad 05-05-2026 08:30 12,6 98 0 0 215 39 1014,5
33 La Piedad 05-05-2026 08:15 12,6 98 0 0 215 39 1014,5
32 La Piedad 05-05-2026 08:00 12,4 98 0 0 175 19 1014,6
31 La Piedad 05-05-2026 07:45 12,6 98 0 0,9 182 0 1014,4
30 La Piedad 05-05-2026 07:15 12,5 98 0 0 219 0 1014,7
29 La Piedad 05-05-2026 07:00 12,5 98 0 0 219 0 1014,8
28 La Piedad 05-05-2026 06:45 12,4 98 0 0,4 219 0 1014,4
27 La Piedad 05-05-2026 06:30 12,4 98 0 0 261 0 1015,1
26 La Piedad 05-05-2026 06:15 12,4 98 0 0 256 0 1014,7
25 La Piedad 05-05-2026 06:00 12,6 98 0 0,4 298 0 1014,8
24 La Piedad 05-05-2026 05:45 12,4 98 0 0,9 240 0 1014,8
23 La Piedad 05-05-2026 05:30 12,4 98 0 0 241 0 1015,4
22 La Piedad 05-05-2026 05:15 12,2 98 0 4 312 0 1015,3
21 La Piedad 05-05-2026 05:00 12,2 98 0 0,4 260 0 1014,8
20 La Piedad 05-05-2026 04:45 12,1 98 0 0 256 0 1016
19 La Piedad 05-05-2026 04:30 12 98 0 1,3 243 0 1015,3
18 La Piedad 05-05-2026 04:15 11,9 98 0 0,9 243 0 1015,1
17 La Piedad 05-05-2026 04:00 11,8 98 0 0 243 0 1015,4
16 La Piedad 05-05-2026 03:45 11,8 98 0 0 243 0 1015,2
15 La Piedad 05-05-2026 03:30 11,8 98 0 0 243 0 1015,2
14 La Piedad 05-05-2026 03:15 11,4 98 0 0 243 0 1015
13 La Piedad 05-05-2026 03:00 11,3 98 0 0 243 0 1015,5
12 La Piedad 05-05-2026 02:45 11,4 97 0 0 243 0 1015,2
11 La Piedad 05-05-2026 02:30 11,6 97 0 0 243 0 1015,1
10 La Piedad 05-05-2026 02:15 11,6 97 0 0 243 0 1015,2
9 La Piedad 05-05-2026 02:00 11,7 98 0 0 243 0 1015,2
8 La Piedad 05-05-2026 01:45 11,6 97 0 0 243 0 1015,4
7 La Piedad 05-05-2026 01:30 11,8 97 0 0 243 0 1015,8
6 La Piedad 05-05-2026 01:15 12,1 98 0 0 243 0 1015,6
5 La Piedad 05-05-2026 01:00 11,9 98 0 0 243 0 1015,8
4 La Piedad 05-05-2026 00:45 11,5 97 0 0 243 0 1016,2
3 La Piedad 05-05-2026 00:30 12,2 97 0 0 243 0 1016,2
2 La Piedad 05-05-2026 00:15 12,5 97 0 0 243 0 1016,3
1 La Piedad 05-05-2026 00:00 12,5 97 0 0 243 0 1016,1